Year,Month,Day,Hour,Minute,Value (Times are PST for temperature in C)
2013,08,06,00,00,13.70
2013,08,06,00,01,13.70
2013,08,06,00,02,13.70
2013,08,06,00,03,13.60
2013,08,06,00,04,13.60
2013,08,06,00,05,13.60
2013,08,06,00,06,13.60
2013,08,06,00,07,13.50
2013,08,06,00,08,13.50
2013,08,06,00,09,13.50
2013,08,06,00,10,13.40
2013,08,06,00,11,13.40
2013,08,06,00,12,13.40
2013,08,06,00,13,13.40
2013,08,06,00,14,13.30
2013,08,06,00,15,13.30
2013,08,06,00,16,13.30
2013,08,06,00,17,13.30
2013,08,06,00,18,13.30
2013,08,06,00,19,13.30
2013,08,06,00,20,13.30
2013,08,06,00,21,13.30
2013,08,06,00,22,13.20
2013,08,06,00,23,13.20
2013,08,06,00,24,13.20
2013,08,06,00,25,13.20
2013,08,06,00,26,13.20
2013,08,06,00,27,13.20
2013,08,06,00,28,13.20
2013,08,06,00,29,13.10
2013,08,06,00,30,13.10
2013,08,06,00,31,13.10
2013,08,06,00,32,13.10
2013,08,06,00,33,13.10
2013,08,06,00,34,13.10
2013,08,06,00,35,13.10
2013,08,06,00,36,13.10
2013,08,06,00,37,13.00
2013,08,06,00,38,13.00
2013,08,06,00,39,13.00
2013,08,06,00,40,13.00
2013,08,06,00,41,12.90
2013,08,06,00,42,12.90
2013,08,06,00,43,12.90
2013,08,06,00,44,12.90
2013,08,06,00,45,12.90
2013,08,06,00,46,12.80
2013,08,06,00,47,12.80
2013,08,06,00,48,12.80
2013,08,06,00,49,12.80
2013,08,06,00,50,12.80
2013,08,06,00,51,12.70
2013,08,06,00,52,12.70
2013,08,06,00,53,12.70
2013,08,06,00,54,12.70
2013,08,06,00,55,12.70
2013,08,06,00,56,12.70
2013,08,06,00,57,12.70
2013,08,06,00,58,12.70
2013,08,06,00,59,12.70
2013,08,06,01,00,12.70
2013,08,06,01,01,12.60
2013,08,06,01,02,12.60
2013,08,06,01,03,12.60
2013,08,06,01,04,12.60
2013,08,06,01,05,12.60
2013,08,06,01,06,12.60
2013,08,06,01,07,12.60
2013,08,06,01,08,12.60
2013,08,06,01,09,12.60
2013,08,06,01,10,12.60
2013,08,06,01,11,12.60
2013,08,06,01,12,12.50
2013,08,06,01,13,12.50
2013,08,06,01,14,12.50
2013,08,06,01,15,12.40
2013,08,06,01,16,12.40
2013,08,06,01,17,12.40
2013,08,06,01,18,12.40
2013,08,06,01,19,12.30
2013,08,06,01,20,12.30
2013,08,06,01,21,12.30
2013,08,06,01,22,12.30
2013,08,06,01,23,12.30
2013,08,06,01,24,12.30
2013,08,06,01,25,12.30
2013,08,06,01,26,12.30
2013,08,06,01,27,12.30
2013,08,06,01,28,12.30
2013,08,06,01,29,12.30
2013,08,06,01,30,12.30
2013,08,06,01,31,12.30
2013,08,06,01,32,12.20
2013,08,06,01,33,12.20
2013,08,06,01,34,12.20
2013,08,06,01,35,12.20
2013,08,06,01,36,12.20
2013,08,06,01,37,12.20
2013,08,06,01,38,12.20
2013,08,06,01,39,12.20
2013,08,06,01,40,12.20
2013,08,06,01,41,12.20
2013,08,06,01,42,12.20
2013,08,06,01,43,12.20
2013,08,06,01,44,12.20
2013,08,06,01,45,12.20
2013,08,06,01,46,12.10
2013,08,06,01,47,12.10
2013,08,06,01,48,12.10
2013,08,06,01,49,12.10
2013,08,06,01,50,12.10
2013,08,06,01,51,12.10
2013,08,06,01,52,12.10
2013,08,06,01,53,12.10
2013,08,06,01,54,12.10
2013,08,06,01,55,12.10
2013,08,06,01,56,12.10
2013,08,06,01,57,12.10
2013,08,06,01,58,12.10
2013,08,06,01,59,12.10
2013,08,06,02,00,12.10
2013,08,06,02,01,12.10
2013,08,06,02,02,12.00
2013,08,06,02,03,12.00
2013,08,06,02,04,12.00
2013,08,06,02,05,12.00
2013,08,06,02,06,12.00
2013,08,06,02,07,12.00
2013,08,06,02,08,12.00
2013,08,06,02,09,12.00
2013,08,06,02,10,12.00
2013,08,06,02,11,12.00
2013,08,06,02,12,12.00
2013,08,06,02,13,12.00
2013,08,06,02,14,12.00
2013,08,06,02,15,12.00
2013,08,06,02,16,12.00
2013,08,06,02,17,12.00
2013,08,06,02,18,11.90
2013,08,06,02,19,11.90
2013,08,06,02,20,11.90
2013,08,06,02,21,11.90
2013,08,06,02,22,11.90
2013,08,06,02,23,11.90
2013,08,06,02,24,11.90
2013,08,06,02,25,11.90
2013,08,06,02,26,11.90
2013,08,06,02,27,11.90
2013,08,06,02,28,11.90
2013,08,06,02,29,11.90
2013,08,06,02,30,11.90
2013,08,06,02,31,11.90
2013,08,06,02,32,11.90
2013,08,06,02,33,11.90
2013,08,06,02,34,11.80
2013,08,06,02,35,11.80
2013,08,06,02,36,11.80
2013,08,06,02,37,11.80
2013,08,06,02,38,11.80
2013,08,06,02,39,11.80
2013,08,06,02,40,11.80
2013,08,06,02,41,11.80
2013,08,06,02,42,11.80
2013,08,06,02,43,11.80
2013,08,06,02,44,11.80
2013,08,06,02,45,11.80
2013,08,06,02,46,11.80
2013,08,06,02,47,11.80
2013,08,06,02,48,11.80
2013,08,06,02,49,11.80
2013,08,06,02,50,11.80
2013,08,06,02,51,11.80
2013,08,06,02,52,11.80
2013,08,06,02,53,11.80
2013,08,06,02,54,11.80
2013,08,06,02,55,11.80
2013,08,06,02,56,11.80
2013,08,06,02,57,11.80
2013,08,06,02,58,11.70
2013,08,06,02,59,11.70
2013,08,06,03,00,11.70
2013,08,06,03,01,11.70
2013,08,06,03,02,11.70
2013,08,06,03,03,11.70
2013,08,06,03,04,11.70
2013,08,06,03,05,11.70
2013,08,06,03,06,11.70
2013,08,06,03,07,11.70
2013,08,06,03,08,11.70
2013,08,06,03,09,11.70
2013,08,06,03,10,11.70
2013,08,06,03,11,11.70
2013,08,06,03,12,11.60
2013,08,06,03,13,11.60
2013,08,06,03,14,11.60
2013,08,06,03,15,11.60
2013,08,06,03,16,11.60
2013,08,06,03,17,11.60
2013,08,06,03,18,11.50
2013,08,06,03,19,11.50
2013,08,06,03,20,11.50
2013,08,06,03,21,11.50
2013,08,06,03,22,11.50
2013,08,06,03,23,11.50
2013,08,06,03,24,11.40
2013,08,06,03,25,11.40
2013,08,06,03,26,11.40
2013,08,06,03,27,11.40
2013,08,06,03,28,11.40
2013,08,06,03,29,11.40
2013,08,06,03,30,11.40
2013,08,06,03,31,11.40
2013,08,06,03,32,11.30
2013,08,06,03,33,11.30
2013,08,06,03,34,11.30
2013,08,06,03,35,11.30
2013,08,06,03,36,11.30
2013,08,06,03,37,11.30
2013,08,06,03,38,11.30
2013,08,06,03,39,11.30
2013,08,06,03,40,11.30
2013,08,06,03,41,11.30
2013,08,06,03,42,11.30
2013,08,06,03,43,11.20
2013,08,06,03,44,11.20
2013,08,06,03,45,11.20
2013,08,06,03,46,11.20
2013,08,06,03,47,11.20
2013,08,06,03,48,11.20
2013,08,06,03,49,11.20
2013,08,06,03,50,11.20
2013,08,06,03,51,11.20
2013,08,06,03,52,11.20
2013,08,06,03,53,11.20
2013,08,06,03,54,11.20
2013,08,06,03,55,11.10
2013,08,06,03,56,11.10
2013,08,06,03,57,11.10
2013,08,06,03,58,11.10
2013,08,06,03,59,11.10
2013,08,06,04,00,11.10
2013,08,06,04,01,11.10
2013,08,06,04,02,11.00
2013,08,06,04,03,11.00
2013,08,06,04,04,11.00
2013,08,06,04,05,10.90
2013,08,06,04,06,10.90
2013,08,06,04,07,10.90
2013,08,06,04,08,10.90
2013,08,06,04,09,10.90
2013,08,06,04,10,10.90
2013,08,06,04,11,10.90
2013,08,06,04,12,10.90
2013,08,06,04,13,10.90
2013,08,06,04,14,10.90
2013,08,06,04,15,10.90
2013,08,06,04,16,10.90
2013,08,06,04,17,10.80
2013,08,06,04,18,10.80
2013,08,06,04,19,10.80
2013,08,06,04,20,10.80
2013,08,06,04,21,10.80
2013,08,06,04,22,10.80
2013,08,06,04,23,10.80
2013,08,06,04,24,10.80
2013,08,06,04,25,10.80
2013,08,06,04,26,10.80
2013,08,06,04,27,10.80
2013,08,06,04,28,10.80
2013,08,06,04,29,10.80
2013,08,06,04,30,10.80
2013,08,06,04,31,10.70
2013,08,06,04,32,10.70
2013,08,06,04,33,10.70
2013,08,06,04,34,10.70
2013,08,06,04,35,10.70
2013,08,06,04,36,10.80
2013,08,06,04,37,10.80
2013,08,06,04,38,10.80
2013,08,06,04,39,10.80
2013,08,06,04,40,10.80
2013,08,06,04,41,10.80
2013,08,06,04,42,10.70
2013,08,06,04,43,10.70
2013,08,06,04,44,10.70
2013,08,06,04,45,10.70
2013,08,06,04,46,10.70
2013,08,06,04,47,10.70
2013,08,06,04,48,10.60
2013,08,06,04,49,10.60
2013,08,06,04,50,10.60
2013,08,06,04,51,10.60
2013,08,06,04,52,10.70
2013,08,06,04,53,10.70
2013,08,06,04,54,10.70
2013,08,06,04,55,10.70
2013,08,06,04,56,10.70
2013,08,06,04,57,10.70
2013,08,06,04,58,10.70
2013,08,06,04,59,10.70
2013,08,06,05,00,10.70
2013,08,06,05,01,10.70
2013,08,06,05,02,10.70
2013,08,06,05,03,10.70
2013,08,06,05,04,10.70
2013,08,06,05,05,10.70
2013,08,06,05,06,10.70
2013,08,06,05,07,10.60
2013,08,06,05,08,10.60
2013,08,06,05,09,10.60
2013,08,06,05,10,10.60
2013,08,06,05,11,10.60
2013,08,06,05,12,10.60
2013,08,06,05,13,10.60
2013,08,06,05,14,10.60
2013,08,06,05,15,10.60
2013,08,06,05,16,10.60
2013,08,06,05,17,10.60
2013,08,06,05,18,10.60
2013,08,06,05,19,10.60
2013,08,06,05,20,10.60
2013,08,06,05,21,10.60
2013,08,06,05,22,10.60
2013,08,06,05,23,10.60
2013,08,06,05,24,10.60
2013,08,06,05,25,10.60
2013,08,06,05,26,10.60
2013,08,06,05,27,10.60
2013,08,06,05,28,10.60
2013,08,06,05,29,10.50
2013,08,06,05,30,10.50
2013,08,06,05,31,10.50
2013,08,06,05,32,10.50
2013,08,06,05,33,10.50
2013,08,06,05,34,10.50
2013,08,06,05,35,10.50
2013,08,06,05,36,10.50
2013,08,06,05,37,10.50
2013,08,06,05,38,10.50
2013,08,06,05,39,10.50
2013,08,06,05,40,10.50
2013,08,06,05,41,10.60
2013,08,06,05,42,10.70
2013,08,06,05,43,10.70
2013,08,06,05,44,10.70
2013,08,06,05,45,10.70
2013,08,06,05,46,10.70
2013,08,06,05,47,10.70
2013,08,06,05,48,10.70
2013,08,06,05,49,10.70
2013,08,06,05,50,10.70
2013,08,06,05,51,10.70
2013,08,06,05,52,10.80
2013,08,06,05,53,10.80
2013,08,06,05,54,10.80
2013,08,06,05,55,10.90
2013,08,06,05,56,10.90
2013,08,06,05,57,10.90
2013,08,06,05,58,10.90
2013,08,06,05,59,10.90
2013,08,06,06,00,10.90
2013,08,06,06,01,10.80
2013,08,06,06,02,10.80
2013,08,06,06,03,10.80
2013,08,06,06,04,10.80
2013,08,06,06,05,10.80
2013,08,06,06,06,10.80
2013,08,06,06,07,10.80
2013,08,06,06,08,10.70
2013,08,06,06,09,10.70
2013,08,06,06,10,10.70
2013,08,06,06,11,10.80
2013,08,06,06,12,10.80
2013,08,06,06,13,10.80
2013,08,06,06,14,10.80
2013,08,06,06,15,10.80
2013,08,06,06,16,10.80
2013,08,06,06,17,10.80
2013,08,06,06,18,10.80
2013,08,06,06,19,10.80
2013,08,06,06,20,10.80
2013,08,06,06,21,10.80
2013,08,06,06,22,10.80
2013,08,06,06,23,10.80
2013,08,06,06,24,10.80
2013,08,06,06,25,10.80
2013,08,06,06,26,10.80
2013,08,06,06,27,10.80
2013,08,06,06,28,10.80
2013,08,06,06,29,10.80
2013,08,06,06,30,10.80
2013,08,06,06,31,10.80
2013,08,06,06,32,10.80
2013,08,06,06,33,10.80
2013,08,06,06,34,10.80
2013,08,06,06,35,10.80
2013,08,06,06,36,10.80
2013,08,06,06,37,10.80
2013,08,06,06,38,10.80
2013,08,06,06,39,10.80
2013,08,06,06,40,10.80
2013,08,06,06,41,10.80
2013,08,06,06,42,10.80
2013,08,06,06,43,10.80
2013,08,06,06,44,10.80
2013,08,06,06,45,10.80
2013,08,06,06,46,10.80
2013,08,06,06,47,10.80
2013,08,06,06,48,10.80
2013,08,06,06,49,10.80
2013,08,06,06,50,10.80
2013,08,06,06,51,10.80
2013,08,06,06,52,10.80
2013,08,06,06,53,10.80
2013,08,06,06,54,10.80
2013,08,06,06,55,10.80
2013,08,06,06,56,10.80
2013,08,06,06,57,10.80
2013,08,06,06,58,10.80
2013,08,06,06,59,10.80
2013,08,06,07,00,10.80
2013,08,06,07,01,10.80
2013,08,06,07,02,10.80
2013,08,06,07,03,10.80
2013,08,06,07,04,10.80
2013,08,06,07,05,10.80
2013,08,06,07,06,10.80
2013,08,06,07,07,10.80
2013,08,06,07,08,10.90
2013,08,06,07,09,10.90
2013,08,06,07,10,10.90
2013,08,06,07,11,10.90
2013,08,06,07,12,10.90
2013,08,06,07,13,10.90
2013,08,06,07,14,10.90
2013,08,06,07,15,10.90
2013,08,06,07,16,10.90
2013,08,06,07,17,10.90
2013,08,06,07,18,11.00
2013,08,06,07,19,11.00
2013,08,06,07,20,11.00
2013,08,06,07,21,11.00
2013,08,06,07,22,11.00
2013,08,06,07,23,11.00
2013,08,06,07,24,11.00
2013,08,06,07,25,11.10
2013,08,06,07,26,11.10
2013,08,06,07,27,11.10
2013,08,06,07,28,11.10
2013,08,06,07,29,11.20
2013,08,06,07,30,11.20
2013,08,06,07,31,11.20
2013,08,06,07,32,11.20
2013,08,06,07,33,11.30
2013,08,06,07,34,11.30
2013,08,06,07,35,11.30
2013,08,06,07,36,11.40
2013,08,06,07,37,11.40
2013,08,06,07,38,11.40
2013,08,06,07,39,11.40
2013,08,06,07,40,11.50
2013,08,06,07,41,11.50
2013,08,06,07,42,11.60
2013,08,06,07,43,11.70
2013,08,06,07,44,11.70
2013,08,06,07,45,11.80
2013,08,06,07,46,11.80
2013,08,06,07,47,11.90
2013,08,06,07,48,11.90
2013,08,06,07,49,12.00
2013,08,06,07,50,12.00
2013,08,06,07,51,12.00
2013,08,06,07,52,12.10
2013,08,06,07,53,12.10
2013,08,06,07,54,12.10
2013,08,06,07,55,12.20
2013,08,06,07,56,12.30
2013,08,06,07,57,12.30
2013,08,06,07,58,12.40
2013,08,06,07,59,12.50
2013,08,06,08,00,12.50
2013,08,06,08,01,12.60
2013,08,06,08,02,12.60
2013,08,06,08,03,12.60
2013,08,06,08,04,12.70
2013,08,06,08,05,12.70
2013,08,06,08,06,12.80
2013,08,06,08,07,12.80
2013,08,06,08,08,12.80
2013,08,06,08,09,12.90
2013,08,06,08,10,12.90
2013,08,06,08,11,12.90
2013,08,06,08,12,13.00
2013,08,06,08,13,13.00
2013,08,06,08,14,13.10
2013,08,06,08,15,13.10
2013,08,06,08,16,13.10
2013,08,06,08,17,13.10
2013,08,06,08,18,13.10
2013,08,06,08,19,13.10
2013,08,06,08,20,13.20
2013,08,06,08,21,13.20
2013,08,06,08,22,13.20
2013,08,06,08,23,13.20
2013,08,06,08,24,13.20
2013,08,06,08,25,13.30
2013,08,06,08,26,13.30
2013,08,06,08,27,13.30
2013,08,06,08,28,13.30
2013,08,06,08,29,13.30
2013,08,06,08,30,13.40
2013,08,06,08,31,13.40
2013,08,06,08,32,13.40
2013,08,06,08,33,13.40
2013,08,06,08,34,13.40
2013,08,06,08,35,13.40
2013,08,06,08,36,13.40
2013,08,06,08,37,13.40
2013,08,06,08,38,13.40
2013,08,06,08,39,13.50
2013,08,06,08,40,13.50
2013,08,06,08,41,13.50
2013,08,06,08,42,13.50
2013,08,06,08,43,13.50
2013,08,06,08,44,13.50
2013,08,06,08,45,13.50
2013,08,06,08,46,13.50
2013,08,06,08,47,13.50
2013,08,06,08,48,13.50
2013,08,06,08,49,13.50
2013,08,06,08,50,13.50
2013,08,06,08,51,13.60
2013,08,06,08,52,13.60
2013,08,06,08,53,13.60
2013,08,06,08,54,13.70
2013,08,06,08,55,13.70
2013,08,06,08,56,13.70
2013,08,06,08,57,13.80
2013,08,06,08,58,13.80
2013,08,06,08,59,13.80
2013,08,06,09,00,13.80
2013,08,06,09,01,13.80
2013,08,06,09,02,13.80
2013,08,06,09,03,13.80
2013,08,06,09,04,13.90
2013,08,06,09,05,13.90
2013,08,06,09,06,14.00
2013,08,06,09,07,14.00
2013,08,06,09,08,14.10
2013,08,06,09,09,14.10
2013,08,06,09,10,14.20
2013,08,06,09,11,14.20
2013,08,06,09,12,14.30
2013,08,06,09,13,14.30
2013,08,06,09,14,14.40
2013,08,06,09,15,14.40
2013,08,06,09,16,14.50
2013,08,06,09,17,14.50
2013,08,06,09,18,14.60
2013,08,06,09,19,14.60
2013,08,06,09,20,14.70
2013,08,06,09,21,14.70
2013,08,06,09,22,14.70
2013,08,06,09,23,14.80
2013,08,06,09,24,14.80
2013,08,06,09,25,14.80
2013,08,06,09,26,14.90
2013,08,06,09,27,15.00
2013,08,06,09,28,15.00
2013,08,06,09,29,15.00
2013,08,06,09,30,15.00
2013,08,06,09,31,15.00
2013,08,06,09,32,15.00
2013,08,06,09,33,15.00
2013,08,06,09,34,15.00
2013,08,06,09,35,15.00
2013,08,06,09,36,15.00
2013,08,06,09,37,15.00
2013,08,06,09,38,15.10
2013,08,06,09,39,15.20
2013,08,06,09,40,15.30
2013,08,06,09,41,15.30
2013,08,06,09,42,15.40
2013,08,06,09,43,15.40
2013,08,06,09,44,15.40
2013,08,06,09,45,15.50
2013,08,06,09,46,15.50
2013,08,06,09,47,15.60
2013,08,06,09,48,15.60
2013,08,06,09,49,15.70
2013,08,06,09,50,15.80
2013,08,06,09,51,15.80
2013,08,06,09,52,15.90
2013,08,06,09,53,15.90
2013,08,06,09,54,15.90
2013,08,06,09,55,15.90
2013,08,06,09,56,16.00
2013,08,06,09,57,16.00
2013,08,06,09,58,16.10
2013,08,06,09,59,16.10
2013,08,06,10,00,16.20
2013,08,06,10,01,16.30
2013,08,06,10,02,16.30
2013,08,06,10,03,16.30
2013,08,06,10,04,16.40
2013,08,06,10,05,16.40
2013,08,06,10,06,16.30
2013,08,06,10,07,16.40
2013,08,06,10,08,16.40
2013,08,06,10,09,16.40
2013,08,06,10,10,16.50
2013,08,06,10,11,16.60
2013,08,06,10,12,16.60
2013,08,06,10,13,16.60
2013,08,06,10,14,16.70
2013,08,06,10,15,16.70
2013,08,06,10,16,16.70
2013,08,06,10,17,16.70
2013,08,06,10,18,16.70
2013,08,06,10,19,16.70
2013,08,06,10,20,16.70
2013,08,06,10,21,16.70
2013,08,06,10,22,16.70
2013,08,06,10,23,16.70
2013,08,06,10,24,16.60
2013,08,06,10,25,16.70
2013,08,06,10,26,16.70
2013,08,06,10,27,16.70
2013,08,06,10,28,16.80
2013,08,06,10,29,16.80
2013,08,06,10,30,16.80
2013,08,06,10,31,16.80
2013,08,06,10,32,16.80
2013,08,06,10,33,16.90
2013,08,06,10,34,16.90
2013,08,06,10,35,16.90
2013,08,06,10,36,16.90
2013,08,06,10,37,16.90
2013,08,06,10,38,17.00
2013,08,06,10,39,17.00
2013,08,06,10,40,17.10
2013,08,06,10,41,17.10
2013,08,06,10,42,17.10
2013,08,06,10,43,17.20
2013,08,06,10,44,17.30
2013,08,06,10,45,17.30
2013,08,06,10,46,17.30
2013,08,06,10,47,17.40
2013,08,06,10,48,17.40
2013,08,06,10,49,17.40
2013,08,06,10,50,17.40
2013,08,06,10,51,17.40
2013,08,06,10,52,17.40
2013,08,06,10,53,17.40
2013,08,06,10,54,17.40
2013,08,06,10,55,17.30
2013,08,06,10,56,17.30
2013,08,06,10,57,17.40
2013,08,06,10,58,17.40
2013,08,06,10,59,17.50
2013,08,06,11,00,17.60
2013,08,06,11,01,17.60
2013,08,06,11,02,17.60
2013,08,06,11,03,17.60
2013,08,06,11,04,17.60
2013,08,06,11,05,17.70
2013,08,06,11,06,17.70
2013,08,06,11,07,17.80
2013,08,06,11,08,17.80
2013,08,06,11,09,17.90
2013,08,06,11,10,18.00
2013,08,06,11,11,18.00
2013,08,06,11,12,17.90
2013,08,06,11,13,17.90
2013,08,06,11,14,17.90
2013,08,06,11,15,18.00
2013,08,06,11,16,18.00
2013,08,06,11,17,18.00
2013,08,06,11,18,17.90
2013,08,06,11,19,17.90
2013,08,06,11,20,17.90
2013,08,06,11,21,17.90
2013,08,06,11,22,17.90
2013,08,06,11,23,17.90
2013,08,06,11,24,17.80
2013,08,06,11,25,17.70
2013,08,06,11,26,17.70
2013,08,06,11,27,17.70
2013,08,06,11,28,17.70
2013,08,06,11,29,17.70
2013,08,06,11,30,17.70
2013,08,06,11,31,17.70
2013,08,06,11,32,17.80
2013,08,06,11,33,17.80
2013,08,06,11,34,17.80
2013,08,06,11,35,17.90
2013,08,06,11,36,18.00
2013,08,06,11,37,18.00
2013,08,06,11,38,18.10
2013,08,06,11,39,18.10
2013,08,06,11,40,18.20
2013,08,06,11,41,18.20
2013,08,06,11,42,18.30
2013,08,06,11,43,18.30
2013,08,06,11,44,18.40
2013,08,06,11,45,18.50
2013,08,06,11,46,18.60
2013,08,06,11,47,18.70
2013,08,06,11,48,18.80
2013,08,06,11,49,18.90
2013,08,06,11,50,18.90
2013,08,06,11,51,19.00
2013,08,06,11,52,19.00
2013,08,06,11,53,19.10
2013,08,06,11,54,19.10
2013,08,06,11,55,19.20
2013,08,06,11,56,19.20
2013,08,06,11,57,19.20
2013,08,06,11,58,19.20
2013,08,06,11,59,19.20
2013,08,06,12,00,19.20
2013,08,06,12,01,19.10
2013,08,06,12,02,19.20
2013,08,06,12,03,19.20
2013,08,06,12,04,19.20
2013,08,06,12,05,19.10
2013,08,06,12,06,19.10
2013,08,06,12,07,19.10
2013,08,06,12,08,19.10
2013,08,06,12,09,19.10
2013,08,06,12,10,19.10
2013,08,06,12,11,19.10
2013,08,06,12,12,19.10
2013,08,06,12,13,19.10
2013,08,06,12,14,19.10
2013,08,06,12,15,19.10
2013,08,06,12,16,19.10
2013,08,06,12,17,19.10
2013,08,06,12,18,19.20
2013,08,06,12,19,19.20
2013,08,06,12,20,19.20
2013,08,06,12,21,19.30
2013,08,06,12,22,19.30
2013,08,06,12,23,19.30
2013,08,06,12,24,19.40
2013,08,06,12,25,19.40
2013,08,06,12,26,19.40
2013,08,06,12,27,19.50
2013,08,06,12,28,19.50
2013,08,06,12,29,19.60
2013,08,06,12,30,19.60
2013,08,06,12,31,19.60
2013,08,06,12,32,19.60
2013,08,06,12,33,19.60
2013,08,06,12,34,19.50
2013,08,06,12,35,19.40
2013,08,06,12,36,19.30
2013,08,06,12,37,19.20
2013,08,06,12,38,19.20
2013,08,06,12,39,19.10
2013,08,06,12,40,19.10
2013,08,06,12,41,19.10
2013,08,06,12,42,19.10
2013,08,06,12,43,19.20
2013,08,06,12,44,19.20
2013,08,06,12,45,19.30
2013,08,06,12,46,19.30
2013,08,06,12,47,19.40
2013,08,06,12,48,19.50
2013,08,06,12,49,19.50
2013,08,06,12,50,19.50
2013,08,06,12,51,19.60
2013,08,06,12,52,19.60
2013,08,06,12,53,19.70
2013,08,06,12,54,19.70
2013,08,06,12,55,19.80
2013,08,06,12,56,19.80
2013,08,06,12,57,19.80
2013,08,06,12,58,19.80
2013,08,06,12,59,19.80
2013,08,06,13,00,19.80
2013,08,06,13,01,19.80
2013,08,06,13,02,19.80
2013,08,06,13,03,19.90
2013,08,06,13,04,19.90
2013,08,06,13,05,19.90
2013,08,06,13,06,19.90
2013,08,06,13,07,20.00
2013,08,06,13,08,20.00
2013,08,06,13,09,20.00
2013,08,06,13,10,20.00
2013,08,06,13,11,20.00
2013,08,06,13,12,20.00
2013,08,06,13,13,20.00
2013,08,06,13,14,19.90
2013,08,06,13,15,19.90
2013,08,06,13,16,19.80
2013,08,06,13,17,19.80
2013,08,06,13,18,19.80
2013,08,06,13,19,19.80
2013,08,06,13,20,19.80
2013,08,06,13,21,19.90
2013,08,06,13,22,19.90
2013,08,06,13,23,19.90
2013,08,06,13,24,20.00
2013,08,06,13,25,20.10
2013,08,06,13,26,20.10
2013,08,06,13,27,20.20
2013,08,06,13,28,20.20
2013,08,06,13,29,20.30
2013,08,06,13,30,20.30
2013,08,06,13,31,20.30
2013,08,06,13,32,20.40
2013,08,06,13,33,20.40
2013,08,06,13,34,20.40
2013,08,06,13,35,20.40
2013,08,06,13,36,20.40
2013,08,06,13,37,20.40
2013,08,06,13,38,20.50
2013,08,06,13,39,20.50
2013,08,06,13,40,20.60
2013,08,06,13,41,20.60
2013,08,06,13,42,20.60
2013,08,06,13,43,20.70
2013,08,06,13,44,20.70
2013,08,06,13,45,20.80
2013,08,06,13,46,20.90
2013,08,06,13,47,21.00
2013,08,06,13,48,21.00
2013,08,06,13,49,21.10
2013,08,06,13,50,21.10
2013,08,06,13,51,21.20
2013,08,06,13,52,21.20
2013,08,06,13,53,21.30
2013,08,06,13,54,21.40
2013,08,06,13,55,21.40
2013,08,06,13,56,21.40
2013,08,06,13,57,21.50
2013,08,06,13,58,21.50
2013,08,06,13,59,21.60
2013,08,06,14,00,21.60
2013,08,06,14,01,21.70
2013,08,06,14,02,21.60
2013,08,06,14,03,21.60
2013,08,06,14,04,21.60
2013,08,06,14,05,21.60
2013,08,06,14,06,21.50
2013,08,06,14,07,21.50
2013,08,06,14,08,21.40
2013,08,06,14,09,21.40
2013,08,06,14,10,21.30
2013,08,06,14,11,21.30
2013,08,06,14,12,21.20
2013,08,06,14,13,21.20
2013,08,06,14,14,21.20
2013,08,06,14,15,21.10
2013,08,06,14,16,21.10
2013,08,06,14,17,21.10
2013,08,06,14,18,21.10
2013,08,06,14,19,21.20
2013,08,06,14,20,21.20
2013,08,06,14,21,21.30
2013,08,06,14,22,21.40
2013,08,06,14,23,21.60
2013,08,06,14,24,21.70
2013,08,06,14,25,21.70
2013,08,06,14,26,21.80
2013,08,06,14,27,21.80
2013,08,06,14,28,21.90
2013,08,06,14,29,22.00
2013,08,06,14,30,22.10
2013,08,06,14,31,22.20
2013,08,06,14,32,22.20
2013,08,06,14,33,22.30
2013,08,06,14,34,22.30
2013,08,06,14,35,22.30
2013,08,06,14,36,22.30
2013,08,06,14,37,22.40
2013,08,06,14,38,22.50
2013,08,06,14,39,22.60
2013,08,06,14,40,22.70
2013,08,06,14,41,22.70
2013,08,06,14,42,22.80
2013,08,06,14,43,22.80
2013,08,06,14,44,22.80
2013,08,06,14,45,22.80
2013,08,06,14,46,22.80
2013,08,06,14,47,22.80
2013,08,06,14,48,22.80
2013,08,06,14,49,22.70
2013,08,06,14,50,22.60
2013,08,06,14,51,22.60
2013,08,06,14,52,22.60
2013,08,06,14,53,22.60
2013,08,06,14,54,22.60
2013,08,06,14,55,22.60
2013,08,06,14,56,22.60
2013,08,06,14,57,22.60
2013,08,06,14,58,22.60
2013,08,06,14,59,22.60
2013,08,06,15,00,22.60
2013,08,06,15,01,22.60
2013,08,06,15,02,22.60
2013,08,06,15,03,22.60
2013,08,06,15,04,22.60
2013,08,06,15,05,22.70
2013,08,06,15,06,22.70
2013,08,06,15,07,22.80
2013,08,06,15,08,22.90
2013,08,06,15,09,23.00
2013,08,06,15,10,23.10
2013,08,06,15,11,23.20
2013,08,06,15,12,23.30
2013,08,06,15,13,23.40
2013,08,06,15,14,23.50
2013,08,06,15,15,23.70
2013,08,06,15,16,23.70
2013,08,06,15,17,23.80
2013,08,06,15,18,23.90
2013,08,06,15,19,24.00
2013,08,06,15,20,24.10
2013,08,06,15,21,24.10
2013,08,06,15,22,24.10
2013,08,06,15,23,24.00
2013,08,06,15,24,24.00
2013,08,06,15,25,23.90
2013,08,06,15,26,23.90
2013,08,06,15,27,23.90
2013,08,06,15,28,23.80
2013,08,06,15,29,23.80
2013,08,06,15,30,23.70
2013,08,06,15,31,23.70
2013,08,06,15,32,23.70
2013,08,06,15,33,23.60
2013,08,06,15,34,23.60
2013,08,06,15,35,23.70
2013,08,06,15,36,23.80
2013,08,06,15,37,23.90
2013,08,06,15,38,24.00
2013,08,06,15,39,24.10
2013,08,06,15,40,24.20
2013,08,06,15,41,24.20
2013,08,06,15,42,24.30
2013,08,06,15,43,24.20
2013,08,06,15,44,24.20
2013,08,06,15,45,24.10
2013,08,06,15,46,24.10
2013,08,06,15,47,24.10
2013,08,06,15,48,24.10
2013,08,06,15,49,24.20
2013,08,06,15,50,24.20
2013,08,06,15,51,24.20
2013,08,06,15,52,24.20
2013,08,06,15,53,24.30
2013,08,06,15,54,24.30
2013,08,06,15,55,24.30
2013,08,06,15,56,24.30
2013,08,06,15,57,24.30
2013,08,06,15,58,24.40
2013,08,06,15,59,24.40
2013,08,06,16,00,24.50
2013,08,06,16,01,24.60
2013,08,06,16,02,24.60
2013,08,06,16,03,24.60
2013,08,06,16,04,24.60
2013,08,06,16,05,24.60
2013,08,06,16,06,24.60
2013,08,06,16,07,24.60
2013,08,06,16,08,24.60
2013,08,06,16,09,24.60
2013,08,06,16,10,24.70
2013,08,06,16,11,24.70
2013,08,06,16,12,24.70
2013,08,06,16,13,24.80
2013,08,06,16,14,24.90
2013,08,06,16,15,25.00
2013,08,06,16,16,25.10
2013,08,06,16,17,25.30
2013,08,06,16,18,25.40
2013,08,06,16,19,25.50
2013,08,06,16,20,25.60
2013,08,06,16,21,25.70
2013,08,06,16,22,25.80
2013,08,06,16,23,25.80
2013,08,06,16,24,25.90
2013,08,06,16,25,25.90
2013,08,06,16,26,25.90
2013,08,06,16,27,26.00
2013,08,06,16,28,26.00
2013,08,06,16,29,26.10
2013,08,06,16,30,26.10
2013,08,06,16,31,26.20
2013,08,06,16,32,26.30
2013,08,06,16,33,26.40
2013,08,06,16,34,26.50
2013,08,06,16,35,26.60
2013,08,06,16,36,26.60
2013,08,06,16,37,26.70
2013,08,06,16,38,26.70
2013,08,06,16,39,26.70
2013,08,06,16,40,26.80
2013,08,06,16,41,26.80
2013,08,06,16,42,26.80
2013,08,06,16,43,26.80
2013,08,06,16,44,26.80
2013,08,06,16,45,26.80
2013,08,06,16,46,26.80
2013,08,06,16,47,26.80
2013,08,06,16,48,26.80
2013,08,06,16,49,26.70
2013,08,06,16,50,26.70
2013,08,06,16,51,26.70
2013,08,06,16,52,26.60
2013,08,06,16,53,26.50
2013,08,06,16,54,26.40
2013,08,06,16,55,26.30
2013,08,06,16,56,26.30
2013,08,06,16,57,26.30
2013,08,06,16,58,26.30
2013,08,06,16,59,26.40
2013,08,06,17,00,26.50
2013,08,06,17,01,26.50
2013,08,06,17,02,26.60
2013,08,06,17,03,26.60
2013,08,06,17,04,26.60
2013,08,06,17,05,26.60
2013,08,06,17,06,26.60
2013,08,06,17,07,26.50
2013,08,06,17,08,26.40
2013,08,06,17,09,26.20
2013,08,06,17,10,26.10
2013,08,06,17,11,26.10
2013,08,06,17,12,26.20
2013,08,06,17,13,26.20
2013,08,06,17,14,26.30
2013,08,06,17,15,26.30
2013,08,06,17,16,26.40
2013,08,06,17,17,26.40
2013,08,06,17,18,26.40
2013,08,06,17,19,26.40